Time,TemperatureF,DewpointF,PressureIn,WindDirection,WindDirectionDegrees,WindSpeedMPH,WindSpeedGustMPH,Humidity,HourlyPrecipIn,Conditions,Clouds,dailyrainin,SoftwareType,DateUTC
2013-03-20 00:02:00,41.0,24.0,-100.00,WNW,282,1.0,2.0,50,0.00,,,-99.99,,2013-03-20 06:02:00,
2013-03-20 00:12:00,41.0,25.0,-100.00,ESE,123,2.0,4.0,53,0.00,,,-99.99,,2013-03-20 06:12:00,
2013-03-20 00:22:00,41.0,25.0,-100.00,South,178,1.0,1.0,53,0.00,,,-99.99,,2013-03-20 06:22:00,
2013-03-20 00:32:00,41.0,25.0,-100.00,South,178,1.0,1.0,53,0.00,,,-99.99,,2013-03-20 06:32:00,
2013-03-20 00:42:00,40.0,26.0,-100.00,SSE,151,2.0,3.0,57,0.00,,,-99.99,,2013-03-20 06:42:00,
2013-03-20 00:52:00,40.0,27.0,-100.00,South,184,1.0,2.0,59,0.00,,,-99.99,,2013-03-20 06:52:00,
2013-03-20 01:02:00,40.0,27.0,-100.00,South,184,1.0,2.0,59,0.00,,,-99.99,,2013-03-20 07:02:00,
2013-03-20 01:11:00,41.0,26.0,-100.00,WSW,250,1.0,2.0,55,0.00,,,-99.99,,2013-03-20 07:11:00,
2013-03-20 01:22:00,40.0,26.0,-100.00,NE,48,1.0,1.0,55,0.00,,,-99.99,,2013-03-20 07:22:00,
2013-03-20 01:31:00,40.0,26.0,-100.00,NE,48,1.0,1.0,55,0.00,,,-99.99,,2013-03-20 07:31:00,
2013-03-20 01:42:00,41.0,26.0,-100.00,WNW,284,1.0,2.0,56,0.00,,,-99.99,,2013-03-20 07:42:00,
2013-03-20 01:52:00,42.0,26.0,-100.00,SE,137,2.0,4.0,53,0.00,,,-99.99,,2013-03-20 07:52:00,
2013-03-20 02:02:00,42.0,26.0,-100.00,SE,137,2.0,4.0,53,0.00,,,-99.99,,2013-03-20 08:02:00,
2013-03-20 02:12:00,42.0,26.0,-100.00,North,1,0.0,1.0,53,0.00,,,-99.99,,2013-03-20 08:12:00,
2013-03-20 02:22:00,42.0,27.0,-100.00,WSW,243,0.0,0.0,55,0.00,,,-99.99,,2013-03-20 08:22:00,
2013-03-20 02:32:00,42.0,27.0,-100.00,WSW,243,0.0,0.0,55,0.00,,,-99.99,,2013-03-20 08:32:00,
2013-03-20 02:42:00,43.0,29.0,-100.00,SSE,158,2.0,3.0,57,0.00,,,-99.99,,2013-03-20 08:42:00,
2013-03-20 02:52:00,42.0,27.0,-100.00,NNW,343,1.0,2.0,54,0.00,,,-99.99,,2013-03-20 08:52:00,
2013-03-20 03:02:00,42.0,27.0,-100.00,NNW,343,1.0,2.0,54,0.00,,,-99.99,,2013-03-20 09:02:00,
2013-03-20 03:11:00,44.0,28.0,-100.00,West,268,0.0,1.0,54,0.00,,,-99.99,,2013-03-20 09:11:00,
2013-03-20 03:22:00,43.0,26.0,-100.00,SE,134,1.0,3.0,50,0.00,,,-99.99,,2013-03-20 09:22:00,
2013-03-20 03:32:00,43.0,26.0,-100.00,SE,134,1.0,3.0,50,0.00,,,-99.99,,2013-03-20 09:32:00,
2013-03-20 03:43:00,43.0,26.0,-100.00,East,83,1.0,2.0,51,0.00,,,-99.99,,2013-03-20 09:43:00,
2013-03-20 03:53:00,43.0,27.0,-100.00,West,264,1.0,2.0,53,0.00,,,-99.99,,2013-03-20 09:53:00,
2013-03-20 04:02:00,43.0,27.0,-100.00,West,264,1.0,2.0,53,0.00,,,-99.99,,2013-03-20 10:02:00,
2013-03-20 04:12:00,44.0,28.0,-100.00,SE,137,2.0,3.0,53,0.00,,,-99.99,,2013-03-20 10:12:00,
2013-03-20 04:22:00,44.0,34.0,-100.00,South,182,4.0,9.0,67,0.12,,,-99.99,,2013-03-20 10:22:00,
2013-03-20 04:32:00,44.0,34.0,-100.00,South,182,4.0,9.0,67,0.12,,,-99.99,,2013-03-20 10:32:00,
2013-03-20 04:42:00,42.0,37.0,-100.00,SE,141,4.0,7.0,81,0.20,,,-99.99,,2013-03-20 10:42:00,
2013-03-20 04:53:00,41.0,37.0,-100.00,NNW,329,0.0,1.0,86,0.12,,,-99.99,,2013-03-20 10:53:00,
2013-03-20 05:02:00,41.0,37.0,-100.00,NNW,329,0.0,1.0,86,0.12,,,-99.99,,2013-03-20 11:02:00,
2013-03-20 05:12:00,40.0,38.0,-100.00,SSE,154,1.0,1.0,91,0.12,,,-99.99,,2013-03-20 11:12:00,
2013-03-20 05:22:00,40.0,38.0,-100.00,NE,56,0.0,0.0,93,0.28,,,-99.99,,2013-03-20 11:22:00,
2013-03-20 05:32:00,40.0,38.0,-100.00,NE,56,0.0,0.0,93,0.28,,,-99.99,,2013-03-20 11:32:00,
2013-03-20 05:42:00,39.0,38.0,-100.00,SSE,161,3.0,4.0,94,0.28,,,-99.99,,2013-03-20 11:42:00,
2013-03-20 05:52:00,39.0,37.0,-100.00,SE,131,2.0,3.0,95,0.20,,,-99.99,,2013-03-20 11:52:00,
2013-03-20 06:02:00,39.0,37.0,-100.00,SE,131,2.0,3.0,95,0.20,,,-99.99,,2013-03-20 12:02:00,
2013-03-20 06:12:00,38.0,37.0,-100.00,NW,318,0.0,0.0,95,0.28,,,-99.99,,2013-03-20 12:12:00,
2013-03-20 06:22:00,38.0,37.0,-100.00,NW,318,0.0,0.0,95,0.28,,,-99.99,,2013-03-20 12:22:00,
2013-03-20 06:32:00,38.0,37.0,-100.00,NW,318,0.0,0.0,95,0.28,,,-99.99,,2013-03-20 12:32:00,
2013-03-20 06:42:00,37.0,36.0,-100.00,North,4,3.0,5.0,96,0.08,,,-99.99,,2013-03-20 12:42:00,
2013-03-20 06:52:00,37.0,36.0,-100.00,NNW,343,2.0,3.0,96,0.04,,,-99.99,,2013-03-20 12:52:00,
2013-03-20 07:02:00,37.0,36.0,-100.00,NNW,343,2.0,3.0,96,0.04,,,-99.99,,2013-03-20 13:02:00,
2013-03-20 07:12:00,37.0,36.0,-100.00,North,349,1.0,2.0,97,0.08,,,-99.99,,2013-03-20 13:12:00,
2013-03-20 07:22:00,37.0,36.0,-100.00,WSW,244,1.0,3.0,97,0.16,,,-99.99,,2013-03-20 13:22:00,
2013-03-20 07:32:00,37.0,36.0,-100.00,WSW,244,1.0,3.0,97,0.16,,,-99.99,,2013-03-20 13:32:00,
2013-03-20 07:42:00,37.0,36.0,-100.00,SSW,205,0.0,0.0,97,0.12,,,-99.99,,2013-03-20 13:42:00,
2013-03-20 07:53:00,37.0,36.0,-100.00,North,352,2.0,3.0,97,0.12,,,-99.99,,2013-03-20 13:53:00,
2013-03-20 08:02:00,37.0,36.0,-100.00,North,352,2.0,3.0,97,0.12,,,-99.99,,2013-03-20 14:02:00,
2013-03-20 08:12:00,37.0,36.0,-100.00,North,350,2.0,4.0,97,0.00,,,-99.99,,2013-03-20 14:12:00,
2013-03-20 08:22:00,37.0,36.0,-100.00,SW,224,0.0,2.0,97,0.00,,,-99.99,,2013-03-20 14:22:00,
2013-03-20 08:32:00,37.0,36.0,-100.00,SW,224,0.0,2.0,97,0.00,,,-99.99,,2013-03-20 14:32:00,
2013-03-20 08:42:00,37.0,36.0,-100.00,North,3,2.0,4.0,98,0.04,,,-99.99,,2013-03-20 14:42:00,
2013-03-20 08:52:00,37.0,36.0,-100.00,SW,230,0.0,0.0,98,0.20,,,-99.99,,2013-03-20 14:52:00,
2013-03-20 09:02:00,37.0,36.0,-100.00,SW,230,0.0,0.0,98,0.20,,,-99.99,,2013-03-20 15:02:00,
2013-03-20 09:12:00,37.0,37.0,-100.00,NNW,342,2.0,3.0,98,0.00,,,-99.99,,2013-03-20 15:12:00,
2013-03-20 09:22:00,37.0,37.0,-100.00,SE,138,0.0,1.0,98,0.12,,,-99.99,,2013-03-20 15:22:00,
2013-03-20 09:33:00,37.0,37.0,-100.00,SE,138,0.0,1.0,98,0.12,,,-99.99,,2013-03-20 15:33:00,
2013-03-20 09:43:00,38.0,37.0,-100.00,East,85,1.0,2.0,98,0.28,,,-99.99,,2013-03-20 15:43:00,
2013-03-20 09:53:00,38.0,37.0,-100.00,South,179,0.0,2.0,98,0.24,,,-99.99,,2013-03-20 15:53:00,
2013-03-20 10:02:00,38.0,37.0,-100.00,South,179,0.0,2.0,98,0.24,,,-99.99,,2013-03-20 16:02:00,
2013-03-20 10:12:00,38.0,38.0,-100.00,West,281,0.0,1.0,98,0.39,,,-99.99,,2013-03-20 16:12:00,
2013-03-20 10:23:00,38.0,37.0,-100.00,East,82,0.0,1.0,98,0.04,,,-99.99,,2013-03-20 16:23:00,
2013-03-20 10:32:00,38.0,37.0,-100.00,East,82,0.0,1.0,98,0.04,,,-99.99,,2013-03-20 16:32:00,
2013-03-20 10:42:00,38.0,37.0,-100.00,WNW,295,0.0,0.0,98,0.04,,,-99.99,,2013-03-20 16:42:00,
2013-03-20 10:53:00,38.0,38.0,-100.00,NNW,329,0.0,1.0,98,0.47,,,-99.99,,2013-03-20 16:53:00,
2013-03-20 11:02:00,38.0,38.0,-100.00,NNW,329,0.0,1.0,98,0.47,,,-99.99,,2013-03-20 17:02:00,
2013-03-20 11:11:00,40.0,40.0,-100.00,South,178,1.0,3.0,99,0.24,,,-99.99,,2013-03-20 17:11:00,
2013-03-20 11:22:00,42.0,41.0,-100.00,SSE,155,5.0,6.0,99,0.24,,,-99.99,,2013-03-20 17:22:00,
2013-03-20 11:32:00,42.0,41.0,-100.00,SSE,155,5.0,6.0,99,0.24,,,-99.99,,2013-03-20 17:32:00,
2013-03-20 11:42:00,42.0,42.0,-100.00,South,182,3.0,6.0,99,0.12,,,-99.99,,2013-03-20 17:42:00,
2013-03-20 11:52:00,42.0,42.0,-100.00,South,171,4.0,7.0,99,0.00,,,-99.99,,2013-03-20 17:52:00,
2013-03-20 12:02:00,42.0,42.0,-100.00,South,171,4.0,7.0,99,0.00,,,-99.99,,2013-03-20 18:02:00,
2013-03-20 12:12:00,42.0,42.0,-100.00,SSE,158,6.0,9.0,99,0.00,,,-99.99,,2013-03-20 18:12:00,
2013-03-20 12:22:00,43.0,42.0,-100.00,SSW,210,2.0,6.0,99,0.00,,,-99.99,,2013-03-20 18:22:00,
2013-03-20 12:32:00,43.0,42.0,-100.00,SSW,210,2.0,6.0,99,0.00,,,-99.99,,2013-03-20 18:32:00,
2013-03-20 12:42:00,44.0,43.0,-100.00,South,171,3.0,6.0,98,0.00,,,-99.99,,2013-03-20 18:42:00,
2013-03-20 12:52:00,43.0,43.0,-100.00,South,191,2.0,5.0,98,0.59,,,-99.99,,2013-03-20 18:52:00,
2013-03-20 13:01:00,43.0,43.0,-100.00,South,191,2.0,5.0,98,0.59,,,-99.99,,2013-03-20 19:01:00,
2013-03-20 13:12:00,44.0,43.0,-100.00,West,267,1.0,2.0,98,0.00,,,-99.99,,2013-03-20 19:12:00,
2013-03-20 13:22:00,45.0,44.0,-100.00,South,188,3.0,7.0,98,0.00,,,-99.99,,2013-03-20 19:22:00,
2013-03-20 13:32:00,45.0,44.0,-100.00,South,188,3.0,7.0,98,0.00,,,-99.99,,2013-03-20 19:32:00,
2013-03-20 13:42:00,45.0,44.0,-100.00,NW,304,2.0,3.0,98,0.00,,,-99.99,,2013-03-20 19:42:00,
2013-03-20 13:53:00,46.0,45.0,-100.00,ESE,123,1.0,2.0,98,0.00,,,-99.99,,2013-03-20 19:53:00,
2013-03-20 14:01:00,46.0,45.0,-100.00,ESE,123,1.0,2.0,98,0.00,,,-99.99,,2013-03-20 20:01:00,
2013-03-20 14:12:00,47.0,46.0,-100.00,ESE,113,1.0,2.0,98,0.00,,,-99.99,,2013-03-20 20:12:00,
2013-03-20 14:22:00,46.0,46.0,-100.00,South,178,1.0,4.0,98,0.39,,,-99.99,,2013-03-20 20:22:00,
2013-03-20 14:32:00,46.0,46.0,-100.00,South,178,1.0,4.0,98,0.39,,,-99.99,,2013-03-20 20:32:00,
2013-03-20 14:42:00,46.0,45.0,-100.00,SSE,157,3.0,4.0,98,0.00,,,-99.99,,2013-03-20 20:42:00,
2013-03-20 14:52:00,46.0,45.0,-100.00,SSE,155,10.0,17.0,97,1.34,,,-99.99,,2013-03-20 20:52:00,
2013-03-20 15:01:00,46.0,45.0,-100.00,SSE,155,10.0,17.0,97,1.34,,,-99.99,,2013-03-20 21:01:00,
2013-03-20 15:12:00,46.0,45.0,-100.00,SSE,157,3.0,6.0,97,0.12,,,-99.99,,2013-03-20 21:12:00,
2013-03-20 15:22:00,47.0,46.0,-100.00,South,179,1.0,2.0,97,0.00,,,-99.99,,2013-03-20 21:22:00,
2013-03-20 15:33:00,47.0,46.0,-100.00,South,179,1.0,2.0,97,0.00,,,-99.99,,2013-03-20 21:33:00,
2013-03-20 15:42:00,47.0,46.0,-100.00,ESE,109,1.0,2.0,97,0.00,,,-99.99,,2013-03-20 21:42:00,
2013-03-20 15:52:00,47.0,46.0,-100.00,SW,220,2.0,3.0,97,0.00,,,-99.99,,2013-03-20 21:52:00,
2013-03-20 16:02:00,47.0,46.0,-100.00,SW,220,2.0,3.0,97,0.00,,,-99.99,,2013-03-20 22:02:00,
2013-03-20 16:12:00,46.0,46.0,-100.00,NW,322,2.0,3.0,97,0.00,,,-99.99,,2013-03-20 22:12:00,
2013-03-20 16:23:00,46.0,46.0,-100.00,NW,322,2.0,3.0,97,0.00,,,-99.99,,2013-03-20 22:23:00,
2013-03-20 16:32:00,46.0,46.0,-100.00,NW,322,2.0,3.0,97,0.00,,,-99.99,,2013-03-20 22:32:00,
2013-03-20 16:42:00,48.0,48.0,-100.00,SW,233,2.0,4.0,98,0.00,,,-99.99,,2013-03-20 22:42:00,
2013-03-20 16:52:00,48.0,46.0,-100.00,SSW,213,1.0,2.0,93,0.12,,,-99.99,,2013-03-20 22:52:00,
2013-03-20 17:02:00,48.0,46.0,-100.00,SSW,213,1.0,2.0,93,0.12,,,-99.99,,2013-03-20 23:02:00,
2013-03-20 17:12:00,47.0,46.0,-100.00,North,1,2.0,3.0,94,1.02,,,-99.99,,2013-03-20 23:12:00,
2013-03-20 17:22:00,47.0,46.0,-100.00,North,1,2.0,3.0,94,1.02,,,-99.99,,2013-03-20 23:22:00,
2013-03-20 17:32:00,47.0,46.0,-100.00,North,1,2.0,3.0,94,1.02,,,-99.99,,2013-03-20 23:32:00,
2013-03-20 17:42:00,47.0,46.0,-100.00,SE,144,3.0,5.0,96,0.00,,,-99.99,,2013-03-20 23:42:00,
2013-03-20 17:52:00,47.0,46.0,-100.00,WSW,256,2.0,4.0,96,0.00,,,-99.99,,2013-03-20 23:52:00,
2013-03-20 18:02:00,47.0,46.0,-100.00,WSW,256,2.0,4.0,96,0.00,,,-99.99,,2013-03-21 00:02:00,
2013-03-20 18:12:00,44.0,43.0,-100.00,SSE,150,3.0,5.0,94,0.08,,,-99.99,,2013-03-21 00:12:00,
2013-03-20 18:22:00,44.0,41.0,-100.00,WNW,295,5.0,9.0,90,0.00,,,-99.99,,2013-03-21 00:22:00,
2013-03-20 18:32:00,44.0,41.0,-100.00,WNW,295,5.0,9.0,90,0.00,,,-99.99,,2013-03-21 00:32:00,
2013-03-20 18:42:00,43.0,40.0,-100.00,North,3,2.0,3.0,88,0.00,,,-99.99,,2013-03-21 00:42:00,
2013-03-20 18:52:00,43.0,39.0,-100.00,SSW,195,3.0,7.0,85,0.00,,,-99.99,,2013-03-21 00:52:00,
2013-03-20 19:02:00,43.0,39.0,-100.00,SSW,195,3.0,7.0,85,0.00,,,-99.99,,2013-03-21 01:02:00,
2013-03-20 19:11:00,43.0,40.0,-100.00,East,100,4.0,6.0,87,0.00,,,-99.99,,2013-03-21 01:11:00,
2013-03-20 19:22:00,42.0,40.0,-100.00,East,93,3.0,5.0,91,0.00,,,-99.99,,2013-03-21 01:22:00,
2013-03-20 19:32:00,42.0,40.0,-100.00,East,93,3.0,5.0,91,0.00,,,-99.99,,2013-03-21 01:32:00,
2013-03-20 19:42:00,42.0,39.0,-100.00,ENE,72,1.0,3.0,91,0.00,,,-99.99,,2013-03-21 01:42:00,
2013-03-20 19:52:00,41.0,39.0,-100.00,WNW,284,2.0,4.0,91,0.00,,,-99.99,,2013-03-21 01:52:00,
2013-03-20 20:12:00,41.0,39.0,-100.00,ESE,109,3.0,6.0,93,0.00,,,-99.99,,2013-03-21 02:12:00,
2013-03-20 20:22:00,41.0,39.0,-100.00,SSE,152,2.0,3.0,92,0.00,,,-99.99,,2013-03-21 02:22:00,
2013-03-20 20:32:00,41.0,39.0,-100.00,SSE,152,2.0,3.0,92,0.00,,,-99.99,,2013-03-21 02:32:00,
2013-03-20 20:42:00,41.0,39.0,-100.00,SSE,152,2.0,3.0,92,0.00,,,-99.99,,2013-03-21 02:42:00,
2013-03-20 20:52:00,41.0,39.0,-100.00,SSE,152,2.0,3.0,92,0.00,,,-99.99,,2013-03-21 02:52:00,
2013-03-20 21:02:00,41.0,37.0,-100.00,WSW,241,3.0,9.0,84,0.00,,,-99.99,,2013-03-21 03:02:00,
2013-03-20 21:12:00,40.0,37.0,-100.00,SW,236,0.0,2.0,86,0.00,,,-99.99,,2013-03-21 03:12:00,
2013-03-20 21:22:00,39.0,37.0,-100.00,East,99,1.0,3.0,91,0.00,,,-99.99,,2013-03-21 03:22:00,
2013-03-20 21:32:00,39.0,37.0,-100.00,East,99,1.0,3.0,91,0.00,,,-99.99,,2013-03-21 03:32:00,
2013-03-20 21:43:00,38.0,37.0,-100.00,WSW,246,0.0,2.0,93,0.00,,,-99.99,,2013-03-21 03:43:00,
2013-03-20 21:53:00,38.0,36.0,-100.00,ESE,120,3.0,6.0,95,0.00,,,-99.99,,2013-03-21 03:53:00,
2013-03-20 22:02:00,38.0,36.0,-100.00,ESE,120,3.0,6.0,95,0.00,,,-99.99,,2013-03-21 04:02:00,
2013-03-20 22:12:00,38.0,36.0,-100.00,ENE,65,0.0,2.0,94,0.00,,,-99.99,,2013-03-21 04:12:00,
2013-03-20 22:22:00,38.0,36.0,-100.00,SE,128,2.0,4.0,94,0.00,,,-99.99,,2013-03-21 04:22:00,
2013-03-20 22:32:00,38.0,36.0,-100.00,SE,128,2.0,4.0,94,0.00,,,-99.99,,2013-03-21 04:32:00,
2013-03-20 22:43:00,38.0,35.0,-100.00,SSE,150,2.0,4.0,89,0.00,,,-99.99,,2013-03-21 04:43:00,
2013-03-20 22:53:00,36.0,35.0,-100.00,WSW,241,0.0,1.0,93,0.00,,,-99.99,,2013-03-21 04:53:00,
2013-03-20 23:02:00,36.0,35.0,-100.00,WSW,241,0.0,1.0,93,0.00,,,-99.99,,2013-03-21 05:02:00,
2013-03-20 23:12:00,37.0,35.0,-100.00,NW,311,1.0,2.0,91,0.00,,,-99.99,,2013-03-21 05:12:00,
2013-03-20 23:22:00,38.0,34.0,-100.00,NE,54,1.0,3.0,86,0.16,,,-99.99,,2013-03-21 05:22:00,
2013-03-20 23:32:00,38.0,34.0,-100.00,NE,54,1.0,3.0,86,0.16,,,-99.99,,2013-03-21 05:32:00,
2013-03-20 23:43:00,37.0,35.0,-100.00,ENE,78,2.0,3.0,90,0.00,,,-99.99,,2013-03-21 05:43:00,
2013-03-20 23:52:00,36.0,35.0,-100.00,ESE,119,2.0,3.0,94,0.04,,,-99.99,,2013-03-21 05:52:00,